Flag for Greece Weather past 2 weeks in Preveza, Greece

Now
50 °F

Light rain. Overcast.


Feels Like: 47 °F
Forecast: 53 / 65 °F
Wind: 7 mph from East

Location: Aktion Airport


UV Index: 3 (Moderate)

Visibility: N/A


Pressure: 29.77 "Hg

Humidity: 88%

Dew point: 46 °F

Location of PrevezaLocation

Historic Weather in Preveza

°F

Preveza temperature yesterday

Maximum temperature yesterday: 59 °F (at 11:50 AM)
Minimum temperature yesterday: 48 °F (at 3:50 AM)
Average temperature yesterday: 53 °F

Past Weeks' High & Low Weather Summary

 TemperatureHumidityPressure
High70 °F (Apr 5, 12:50 PM)94% (Apr 4, 6:50 AM)30.12 "Hg (Apr 4, 6:50 AM)
Low45 °F (Apr 17, 6:50 AM)35% (Apr 4, 7:50 PM)29.68 "Hg (Apr 18, 6:50 AM)
Average59 °F73%29.93 "Hg
* Reported Apr 4 4:20 AM — Apr 19 4:50 AM, Preveza, Weather by CustomWeather, © 2014

Note: Actual official high and low records may vary slightly from our data, if they occured in-between our weather recording intervals... More about our weather records

Advertising

Historic Weather Conditions — Data for Previous 24 hours

 ConditionsComfort  
Time TempWeatherWind HumidityBarometerVisibility
4:50 AM
Apr 19
50 °FLight rain. Overcast.5 mph88%29.77 "HgN/A
4:20 AM50 °FLight rain. Overcast.5 mph88%29.77 "HgN/A
3:50 AM50 °FLight rain. Overcast.5 mph88%29.80 "HgN/A
3:20 AM50 °FLight rain. Overcast.2 mph88%29.80 "HgN/A
2:50 AM50 °FLight rain. Overcast.1 mph88%29.80 "HgN/A
2:20 AM50 °FLight rain. Overcast.2 mph88%29.80 "HgN/A
1:50 AM50 °FLight rain. Overcast.2 mph88%29.80 "HgN/A
1:20 AM50 °FLight rain. Overcast.3 mph88%29.80 "HgN/A
12:50 AM48 °FLight rain. Overcast.3 mph94%29.80 "HgN/A
11:50 PM
Apr 18
52 °FLight rain. Overcast.5 mph82%29.80 "HgN/A
11:20 PM54 °FCool.8 mph67%29.77 "HgN/A
10:50 PM52 °FCool.5 mph77%29.80 "HgN/A
10:20 PM52 °FLight rain. Overcast.3 mph77%29.77 "HgN/A
9:50 PM52 °FLight rain. Overcast.2 mph72%29.80 "HgN/A
9:20 PM54 °FPassing clouds.14 mph67%29.77 "HgN/A
8:50 PM54 °FScattered clouds.14 mph67%29.77 "HgN/A
8:20 PM54 °FScattered clouds.9 mph67%29.77 "HgN/A
7:50 PM55 °FScattered clouds.9 mph63%29.77 "HgN/A
7:20 PM55 °FScattered clouds.9 mph63%29.74 "HgN/A
6:50 PM57 °FScattered clouds.9 mph59%29.74 "HgN/A
6:20 PM57 °FScattered clouds.12 mph63%29.74 "HgN/A
5:50 PM54 °FScattered clouds.8 mph77%29.74 "HgN/A
4:50 PM54 °FDrizzle. Broken clouds.16 mph77%29.74 "HgN/A
4:20 PM55 °FScattered clouds.21 mph63%29.74 "HgN/A
3:50 PM57 °FScattered clouds.13 mph63%29.74 "HgN/A
3:20 PM57 °FScattered clouds.13 mph63%29.74 "HgN/A
2:50 PM57 °FScattered clouds.16 mph59%29.74 "HgN/A
2:20 PM57 °FDrizzle. Broken clouds.14 mph63%29.74 "HgN/A
1:50 PM57 °FBroken clouds.9 mph63%29.74 "HgN/A
1:20 PM55 °FDrizzle. Broken clouds.6 mph72%29.74 "HgN/A
12:50 PM55 °FBroken clouds.10 mph67%29.74 "HgN/A
12:20 PM57 °FBroken clouds.6 mph63%29.74 "HgN/A
11:50 AM59 °FScattered clouds.7 mph59%29.74 "HgN/A
11:20 AM57 °FScattered clouds.5 mph63%29.71 "HgN/A
10:50 AM57 °FScattered clouds.6 mph63%29.71 "HgN/A
10:20 AM54 °FScattered clouds.7 mph77%29.71 "HgN/A
9:50 AM54 °FScattered clouds.7 mph77%29.71 "HgN/A
9:20 AM50 °FBroken clouds.No wind82%29.71 "HgN/A
8:50 AM50 °FBroken clouds.No wind82%29.71 "HgN/A
8:20 AM50 °FPartly sunny.No wind88%29.71 "HgN/A
7:50 AM50 °FPassing clouds.No wind82%29.71 "HgN/A
7:20 AM50 °FLight rain. Passing clouds.5 mph82%29.71 "HgN/A
6:50 AM50 °FPassing clouds.7 mph82%29.68 "HgN/A
6:20 AM48 °FPassing clouds.6 mph87%29.71 "HgN/A
5:50 AM48 °FPassing clouds.6 mph94%29.71 "HgN/A
5:20 AM48 °FCool.2 mph87%29.71 "HgN/A
Weather by CustomWeather, © 2014

See weather overview